Probability
0 0 0 0 0 0 0 0 0 0 0 0 0 0 0 0 0 0 0 0 0 0 0 0 0 0 0 6 6 6 13 13 19 23 26 26 29 42
0 0 0 0 0 0 0 0 0 0 0 0 0 0 0 0 0 0 0 0 0 0 0 0 0 0 0 0 0 0 0 0 0 0 3 3 10 13
0 0 0 0 0 0 0 0 0 0 0 0 0 0 0 0 0 0 0 0 0 0 0 0 0 0 0 0 0 0 0 0 0 0 0 0 0 0
0 0 0 0 0 0 0 0 0 0 0 0 0 0 0 0 0 0 0 0 0 0 0 0 0 0 0 0 0 0 0 0 0 0 0 0 0 0
0 0 0 0 0 0 0 0 0 0 0 0 0 0 0 0 0 0 0 0 0 0 0 0 0 0 0 0 0 0 0 0 0 0 0 0 0 0
0 0 0 0 0 0 0 0 0 0 0 0 0 0 0 0 0 0 0 0 0 0 0 0 0 0 0 0 0 0 0 0 0 0 0 0 0 0
0 0 0 0 0 0 0 0 0 0 0 0 0 0 0 0 0 0 0 0 0 0 0 0 0 0 0 0 0 0 0 0 0 0 0 0 0 0
0 0 0 0 0 0 0 0 0 0 0 0 0 0 0 0 0 0 0 0 0 0 0 0 0 0 0 0 0 0 0 0 0 0 0 0 0 0
0 0 0 0 0 0 0 0 0 0 0 0 0 0 0 0 0 0 0 0 0 0 0 0 0 0 0 0 0 0 0 0 0 0 0 0 0 0
0 0 0 0 0 0 0 0 0 0 0 0 0 0 0 0 0 0 0 0 0 0 0 0 0 0 0 0 0 0 0 0 0 0 0 0 0 0
0 0 0 0 0 0 0 0 0 0 0 0 0 0 0 0 0 0 0 0 0 0 0 0 0 0 0 0 0 0 0 0 0 0 0 0 0 0
0 0 0 0 0 0 0 0 0 0 0 0 0 0 0 0 0 0 0 0 0 0 0 0 0 0 0 0 0 0 0 0 0 0 0 0 0 0
0 0 0 0 0 0 0 0 0 0 0 0 0 0 0 0 0 0 0 0 0 0 0 0 0 0 0 0 0 0 0 0 0 0 0 0 0 0
0 0 0 0 0 0 0 0 0 0 0 0 0 0 0 0 0 0 0 0 0 0 0 0 0 0 0 0 0 0 0 0 0 0 0 0 0 0
0 0 0 0 0 0 0 0 0 0 0 0 0 0 0 0 0 0 0 0 0 0 0 0 0 0 0 0 0 0 0 0 0 0 0 0 0 0
0 0 0 0 0 0 0 0 0 0 0 0 0 0 0 0 0 0 0 0 0 0 0 0 0 0 0 0 0 0 0 0 0 0 0 0 0 0
0 0 0 0 0 0 0 0 0 0 0 0 0 0 0 0 0 0 0 0 0 0 0 0 0 0 0 0 0 0 0 0 0 0 0 0 0 0
0 0 0 0 0 0 0 0 0 0 0 0 0 0 0 0 0 0 0 0 0 0 0 0 0 0 0 0 0 0 0 0 0 0 0 0 0 0
0 0 0 0 0 0 0 0 0 0 0 0 0 0 0 0 0 0 0 0 0 0 0 0 0 0 0 0 0 0 0 0 0 0 0 0 0 0
0 0 0 0 0 0 0 0 0 0 0 0 0 0 0 0 0 0 0 0 0 0 0 0 0 0 0 0 0 0 0 0 0 0 0 0 0 0
0 0 0 0 0 0 0 0 0 0 0 0 0 0 0 0 0 0 0 0 0 0 0 0 0 0 0 0 0 0 0 0 0 0 0 0 0 0
0 0 0 0 0 0 0 0 0 0 0 0 0 0 0 0 0 0 0 0 0 0 0 0 0 0 0 0 0 0 0 0 0 0 0 0 0 0
0 0 0 0 0 0 0 0 0 0 0 0 0 0 0 0 0 0 0 0 0 0 0 0 0 0 0 0 0 0 0 0 0 0 0 0 0 0
Height
5835 5833 5832 5830 5829 5828 5828 5828 5828 5828 5828 5828 5829 5830 5832 5834 5836 5838 5840 5843 5845 5848 5851 5853 5856 5859 5862 5864 5866 5869 5871 5874 5876 5878 5881 5883 5885 5887
5836 5834 5832 5831 5829 5828 5827 5827 5827 5827 5827 5827 5828 5829 5830 5831 5833 5835 5837 5839 5841 5844 5846 5849 5851 5854 5857 5859 5862 5864 5866 5868 5871 5873 5875 5877 5879 5881
5836 5834 5832 5831 5829 5828 5827 5826 5825 5825 5825 5825 5825 5826 5827 5828 5830 5831 5833 5835 5837 5839 5841 5844 5846 5849 5851 5853 5856 5858 5860 5862 5865 5867 5869 5871 5873 5875
5836 5834 5832 5830 5828 5826 5825 5824 5823 5823 5823 5823 5823 5823 5823 5824 5826 5827 5829 5830 5832 5834 5836 5838 5840 5842 5844 5847 5849 5851 5854 5856 5858 5861 5863 5865 5867 5869
5835 5833 5830 5828 5826 5824 5823 5822 5820 5819 5819 5819 5819 5819 5819 5820 5821 5822 5823 5825 5826 5828 5830 5831 5833 5835 5837 5840 5842 5844 5846 5849 5851 5853 5856 5858 5859 5861
5834 5831 5828 5826 5823 5821 5819 5818 5816 5815 5814 5814 5814 5814 5814 5815 5815 5816 5817 5819 5820 5821 5823 5824 5826 5828 5830 5832 5834 5836 5838 5841 5843 5845 5847 5850 5851 5853
5831 5828 5825 5822 5820 5817 5815 5813 5812 5810 5809 5808 5808 5808 5808 5809 5809 5810 5811 5812 5813 5814 5815 5817 5818 5820 5821 5823 5825 5827 5830 5832 5834 5836 5838 5841 5843 5845
5828 5825 5822 5818 5815 5812 5810 5807 5805 5804 5803 5802 5801 5801 5801 5801 5801 5802 5803 5804 5805 5806 5807 5808 5809 5811 5812 5814 5816 5818 5820 5822 5824 5827 5829 5831 5833 5835
5823 5820 5817 5813 5810 5807 5803 5800 5798 5795 5794 5793 5793 5792 5792 5793 5793 5793 5794 5795 5796 5797 5797 5799 5800 5801 5802 5804 5806 5808 5810 5812 5814 5816 5819 5821 5823 5825
5817 5814 5810 5806 5802 5799 5796 5793 5790 5787 5784 5783 5783 5782 5782 5782 5782 5783 5783 5784 5786 5786 5786 5788 5789 5790 5792 5793 5795 5797 5799 5801 5803 5805 5807 5809 5812 5814
5810 5805 5801 5798 5794 5790 5787 5783 5780 5777 5774 5772 5771 5771 5771 5771 5771 5772 5772 5773 5774 5775 5775 5776 5777 5778 5780 5781 5783 5784 5786 5788 5791 5793 5795 5797 5800 5802
5802 5797 5792 5788 5783 5779 5775 5772 5769 5766 5763 5761 5759 5759 5758 5759 5759 5759 5760 5760 5761 5762 5763 5763 5763 5764 5766 5769 5770 5771 5773 5775 5778 5780 5782 5785 5787 5789
5792 5787 5782 5777 5772 5767 5763 5759 5756 5753 5751 5748 5746 5745 5745 5745 5745 5745 5746 5746 5747 5748 5749 5748 5749 5750 5751 5754 5756 5758 5760 5762 5764 5767 5769 5771 5773 5776
5780 5775 5770 5765 5760 5755 5750 5746 5743 5739 5737 5734 5732 5731 5731 5730 5730 5730 5730 5730 5731 5732 5733 5733 5734 5735 5736 5738 5741 5744 5745 5747 5749 5752 5755 5757 5760 5762
5768 5762 5757 5752 5746 5741 5736 5732 5728 5724 5721 5718 5716 5715 5715 5714 5714 5714 5714 5714 5715 5715 5716 5716 5717 5718 5720 5722 5725 5728 5730 5732 5734 5737 5740 5743 5745 5748
5755 5749 5743 5737 5731 5726 5721 5716 5712 5708 5704 5701 5698 5697 5697 5696 5696 5696 5696 5696 5697 5699 5699 5699 5699 5700 5702 5705 5708 5711 5714 5716 5719 5721 5724 5727 5730 5733
5741 5735 5729 5723 5717 5711 5705 5700 5695 5690 5686 5682 5680 5679 5678 5677 5677 5676 5676 5677 5678 5679 5681 5681 5681 5682 5684 5687 5690 5693 5696 5699 5702 5704 5707 5711 5714 5718
5726 5719 5713 5706 5700 5694 5688 5683 5678 5672 5668 5664 5661 5659 5658 5657 5657 5656 5656 5656 5657 5658 5660 5661 5661 5662 5665 5668 5672 5674 5677 5681 5684 5686 5690 5693 5698 5702
5709 5703 5696 5690 5683 5677 5671 5666 5661 5655 5650 5646 5643 5641 5638 5636 5635 5635 5635 5635 5636 5637 5638 5639 5640 5641 5644 5649 5655 5655 5658 5662 5665 5668 5672 5676 5681 5685
5692 5685 5679 5672 5666 5660 5653 5648 5643 5638 5632 5628 5624 5621 5619 5616 5615 5614 5614 5614 5614 5616 5617 5619 5620 5621 5623 5627 5633 5638 5640 5642 5646 5650 5655 5658 5663 5668
5675 5668 5661 5655 5648 5642 5636 5630 5624 5619 5614 5610 5606 5602 5600 5597 5596 5595 5594 5594 5594 5595 5597 5600 5601 5601 5602 5606 5611 5618 5623 5625 5628 5632 5637 5641 5646 5651
5658 5651 5644 5637 5630 5623 5617 5611 5606 5601 5596 5591 5587 5584 5581 5579 5577 5576 5575 5575 5575 5576 5577 5580 5581 5583 5585 5588 5593 5599 5604 5608 5611 5615 5620 5626 5629 5636
5640 5633 5626 5619 5612 5605 5599 5593 5588 5583 5578 5573 5569 5566 5563 5561 5559 5558 5557 5557 5557 5558 5559 5561 5564 5566 5568 5571 5575 5581 5586 5591 5595 5600 5605 5609 5614 5620
Wind_Speed
18 17 16 15 13 11 9 7 6 5 5 5 7 10 13 16 18 19 21 23 24 25 25 26 26 26 25 25 26 25 25 25 25 25 25 24 24 23
18 18 17 16 14 12 11 10 8 7 6 7 8 10 13 15 17 19 21 22 23 25 26 26 26 27 27 26 27 27 27 27 27 27 26 26 26 26
18 18 17 17 15 14 12 11 11 10 8 8 10 11 12 15 17 18 20 22 24 25 26 27 28 28 28 28 28 28 28 28 28 28 28 28 28 28
19 19 18 18 17 15 14 14 13 12 11 10 11 12 13 15 17 18 20 22 24 25 26 27 28 29 30 30 30 30 30 30 30 30 30 29 29 29
20 20 20 19 18 17 17 16 16 15 14 13 12 13 14 15 17 19 20 22 24 25 27 28 29 30 31 32 32 32 32 32 32 32 32 32 31 31
21 21 21 21 20 20 19 19 18 17 17 16 15 15 16 17 19 20 21 22 24 26 27 29 30 31 32 33 33 34 34 34 34 34 34 34 34 33
23 23 23 23 23 23 22 22 21 20 19 18 18 17 18 19 20 22 23 24 25 27 28 29 30 32 33 35 35 36 36 36 36 36 36 35 35 35
25 25 25 25 25 25 25 25 24 23 22 21 21 20 21 21 22 23 25 26 28 29 30 31 32 33 34 35 36 36 37 38 38 38 38 37 37 37
27 28 28 28 28 28 28 28 27 26 26 25 24 24 25 25 25 26 27 28 29 30 32 33 34 36 37 38 38 38 38 39 39 40 41 40 39 39
31 31 31 31 32 32 31 31 30 30 29 29 28 28 28 29 29 30 30 31 31 33 34 35 37 38 39 40 40 40 40 41 41 42 42 42 42 41
35 35 35 35 35 35 35 34 33 33 33 32 31 31 32 32 32 33 34 34 35 35 36 37 39 40 41 41 42 42 42 41 42 43 43 43 43 43
38 38 39 39 39 39 39 38 37 37 37 37 36 35 35 36 36 37 37 38 38 38 39 40 41 42 42 42 43 44 44 44 44 44 44 45 44 44
41 42 42 43 43 43 42 42 41 41 41 41 40 39 39 40 40 40 41 42 42 41 42 43 43 44 44 44 45 45 45 46 46 45 45 45 45 45
45 45 46 46 46 46 45 45 45 45 45 45 44 43 42 43 44 44 45 46 45 45 45 46 46 46 46 46 46 46 47 47 47 47 47 46 46 46
48 48 49 50 50 49 49 49 49 49 49 49 48 47 46 47 47 48 48 48 48 48 48 48 48 48 49 48 48 48 48 48 48 48 48 48 48 47
51 52 52 53 53 52 52 52 53 53 53 52 51 51 50 50 51 51 51 51 51 50 50 50 51 51 51 50 50 49 49 49 49 49 49 50 49 49
55 55 56 56 55 55 55 54 55 55 55 53 53 52 52 53 53 53 53 53 54 53 53 53 53 53 52 51 51 50 51 51 51 52 51 50 50 49
58 58 58 58 57 57 56 56 56 56 56 55 54 54 54 55 55 54 54 55 56 56 56 55 54 54 54 53 52 52 52 53 53 53 53 52 51 51
61 60 60 60 59 58 58 58 57 57 56 55 55 55 56 56 56 55 54 55 56 56 56 56 55 55 55 54 53 53 52 52 53 52 52 52 51 50
63 62 62 62 61 60 60 60 59 57 56 56 56 55 55 55 54 54 54 54 55 55 54 53 54 54 55 54 53 52 52 51 52 51 51 51 50 50
64 64 64 63 63 62 62 61 60 58 57 57 56 55 54 54 52 52 53 53 53 53 52 51 51 53 54 53 53 51 50 50 50 49 50 50 49 49
66 65 65 65 65 64 63 61 60 59 58 57 56 54 53 52 51 50 50 50 49 49 49 49 49 49 50 50 49 49 48 48 48 48 49 49 48 47
67 66 66 66 65 65 63 61 60 59 57 56 55 54 52 50 49 48 47 47 47 46 46 46 46 46 47 47 47 47 48 47 46 47 47 47 47 46
Wind_Direction
21 20 18 15 11 7 3 355 337 311 283 255 241 235 229 227 226 227 227 227 226 226 225 225 226 229 230 230 230 231 231 232 233 234 234 235 237 239
16 16 14 12 10 5 359 353 344 324 295 271 261 249 240 235 234 233 231 231 231 232 231 228 229 231 232 233 233 235 235 235 236 237 237 239 240 241
11 9 7 5 3 358 352 345 338 329 312 285 271 262 251 245 243 239 236 236 237 236 237 235 234 235 235 236 236 236 237 237 237 239 240 242 243 244
5 3 0 358 355 351 346 340 334 326 316 298 279 269 261 252 248 246 244 240 240 239 240 240 239 239 238 238 239 238 239 239 240 241 243 244 245 247
357 357 355 352 348 343 339 335 330 324 315 304 288 274 267 259 253 251 249 245 244 243 244 244 243 242 242 242 242 242 242 242 242 243 245 245 247 248
351 349 346 344 342 337 333 330 326 321 314 305 293 281 274 267 261 256 253 250 249 248 247 247 247 247 246 245 245 245 244 244 245 245 246 248 248 249
342 341 339 336 334 332 328 324 321 317 312 305 297 286 280 274 268 262 257 255 254 253 251 250 250 250 249 248 248 248 247 246 246 246 247 249 250 250
333 333 331 328 327 326 324 320 316 312 308 302 295 288 283 278 274 267 263 259 257 256 255 253 253 252 251 250 250 250 249 249 248 248 248 249 251 251
326 326 325 323 321 321 319 315 312 308 304 300 294 287 283 279 275 272 268 265 262 261 259 258 256 255 253 251 251 251 251 250 249 249 249 249 250 252
320 320 319 318 317 316 315 312 308 304 300 297 292 287 283 280 277 275 273 270 268 265 263 262 259 257 256 255 254 252 251 251 251 250 250 250 250 252
316 316 315 315 313 312 311 309 306 302 298 295 292 286 283 280 277 276 274 273 271 269 267 265 263 260 258 257 255 254 254 254 254 252 251 251 251 252
313 312 311 311 311 309 308 306 303 300 298 295 292 287 284 281 278 276 275 274 272 271 270 268 266 263 260 257 256 255 255 255 255 255 255 254 253 252
310 310 309 308 307 306 305 302 300 298 296 293 290 287 284 282 280 278 276 275 274 272 271 269 268 266 263 260 257 256 256 256 256 255 255 255 254 254
309 308 307 307 305 304 302 300 298 297 295 292 288 284 283 281 279 278 276 275 274 273 272 270 269 267 265 263 260 258 257 256 256 255 255 255 254 254
307 307 306 306 304 302 301 299 298 296 294 292 287 283 282 280 278 276 275 275 274 274 273 271 269 267 265 263 262 259 257 256 256 256 255 255 255 254
306 306 305 305 303 301 300 299 298 296 295 292 287 283 281 279 277 276 275 274 273 272 271 270 269 267 265 263 262 261 259 257 256 255 255 255 255 254
306 306 305 305 303 301 299 298 297 296 294 291 287 282 281 280 278 276 275 273 272 270 269 268 267 265 263 261 261 260 259 258 257 255 255 254 253 253
306 306 305 304 302 301 300 298 297 296 294 291 287 284 283 281 279 276 274 273 271 270 268 267 265 263 261 260 260 259 258 258 257 255 254 252 251 251
306 305 304 304 303 301 300 298 297 296 294 291 289 286 284 282 279 276 273 272 270 270 268 265 264 262 261 260 257 257 257 256 255 254 252 251 250 249
306 305 304 303 303 301 300 298 297 296 294 291 289 287 285 283 279 276 274 272 270 269 267 265 263 261 260 259 256 255 254 254 253 252 251 250 248 248
305 305 304 303 303 301 300 299 297 295 293 291 289 287 285 283 280 277 275 273 271 269 266 264 262 260 259 257 255 253 251 250 249 249 249 248 247 247
305 305 304 303 302 301 300 298 296 294 292 291 289 286 285 282 280 278 275 273 271 269 266 262 260 258 256 255 253 251 248 247 246 246 247 247 247 246
305 304 304 302 302 301 300 298 296 294 292 291 288 286 284 282 279 276 274 272 270 268 265 262 258 256 255 254 251 250 247 247 247 246 245 245 245 245